Sacramento, CA

12:21 AM PDT on August 18, 2017 (GMT -0700)
Sacramento Executive

Weather History for KSAC - November, 2010

Change the Weather History Date:

Thursday, November 11, 2010

  Actual Average Record
Temperature  
Mean Temperature 54 °F -  
Max Temperature 67 °F 66 °F 77 °F (1996)
Min Temperature 41 °F 44 °F 31 °F (1992)
Degree Days  
Heating Degree Days 11    
Month to date heating degree days 76  
Cooling Degree Days 0    
Month to date cooling degree days 2  
Year to date cooling degree days 1079  
Growing Degree Days 4 (Base 50)    
Moisture  
Dew Point 38 °F    
Average Humidity 62    
Maximum Humidity 89    
Minimum Humidity 34    
Precipitation  
Precipitation 0.00 in 0.06 in 0.77 in (1973)
Month to date precipitation 0.47 0.64  
Year to date precipitation 15.37 13.83  
Since 1 July precipitation 1.91  
Snow  
Snow 0.00 in 0.00 in 0.00 in (2001)
Month to date snowfall 0.0 0.0  
Since 1 July snowfall 0.0 0.0  
Since 1 September snowfall 0.0 0.0  
Snow Depth 0.00 in    
Sea Level Pressure  
Sea Level Pressure 30.32 in    
Wind  
Wind Speed 9 mph (NNW)    
Max Wind Speed 16 mph    
Max Gust Speed 22 mph    
Visibility 10 miles    
Events      
T = Trace of Precipitation, MM = Missing Value Source: NWS Daily Summary

Daily Weather History Graph

Daily Weather History Graph

Search for Another Location

Airport or City:

Trip Planner

Search our weather history database for the weather conditions in past years. The results will help you decide how hot, cold, wet, or windy it might be!

Date:

Astronomy

Nov. 11, 2010 Rise Set
Actual Time 6:43 AM PST 4:56 PM PST
Civil Twilight 6:15 AM PST 5:24 PM PST
Nautical Twilight 5:43 AM PST 5:55 PM PST
Astronomical Twilight 5:12 AM PST 6:27 PM PST
Moon 11:45 AM PST (11/11) 10:07 PM PST (11/11)
Length of Visible Light 11h 08m
Length of Day
10h 12m
Waxing Crescent, 32% of the Moon is Illuminated
Nov 11
Waxing Crescent
Nov 13
First Quarter
Nov 21
Full
Nov 28
Last Quarter
Dec 5
New

Hourly Weather History & Observations

Time (PST) Temp. Windchill Dew Point Humidity Pressure Visibility Wind Dir Wind Speed Gust Speed Precip Events Conditions
12:53 AM 48.9 °F - 41.0 °F 74% 30.18 in 10.0 mi NNW 11.5 mph - N/A   Clear
1:53 AM 48.0 °F - 39.0 °F 71% 30.19 in 10.0 mi NNW 11.5 mph - N/A   Clear
2:53 AM 46.9 °F - 39.0 °F 74% 30.21 in 10.0 mi NNW 11.5 mph - N/A   Clear
3:53 AM 46.0 °F 40.6 °F 39.0 °F 76% 30.23 in 10.0 mi NNW 11.5 mph - N/A   Clear
4:53 AM 46.0 °F 40.2 °F 37.9 °F 73% 30.25 in 10.0 mi NNW 12.7 mph - N/A   Clear
5:53 AM 46.0 °F 42.5 °F 36.0 °F 68% 30.26 in 10.0 mi NNW 6.9 mph - N/A   Clear
6:53 AM 44.1 °F 38.6 °F 37.0 °F 76% 30.26 in 10.0 mi NNW 10.4 mph - N/A   Clear
7:53 AM 46.9 °F - 37.9 °F 71% 30.29 in 10.0 mi NNW 12.7 mph - N/A   Clear
8:53 AM 51.1 °F - 37.9 °F 61% 30.32 in 10.0 mi NNW 12.7 mph - N/A   Clear
9:53 AM 55.9 °F - 39.0 °F 53% 30.34 in 10.0 mi NNW 12.7 mph - N/A   Clear
10:53 AM 61.0 °F - 37.9 °F 42% 30.35 in 10.0 mi North 12.7 mph - N/A   Clear
11:53 AM 64.0 °F - 37.0 °F 37% 30.35 in 10.0 mi NNW 12.7 mph - N/A   Clear
12:53 PM 64.9 °F - 36.0 °F 34% 30.35 in 10.0 mi NW 12.7 mph - N/A   Clear
1:53 PM 66.0 °F - 37.0 °F 34% 30.35 in 10.0 mi NNW 9.2 mph - N/A   Clear
2:53 PM 64.9 °F - 36.0 °F 34% 30.35 in 10.0 mi NW 6.9 mph - N/A   Clear
3:53 PM 64.0 °F - 37.0 °F 37% 30.35 in 10.0 mi NNW 4.6 mph - N/A   Clear
4:53 PM 59.0 °F - 36.0 °F 42% 30.37 in 10.0 mi NNW 5.8 mph - N/A   Clear
5:53 PM 52.0 °F - 39.0 °F 61% 30.38 in 10.0 mi Calm Calm - N/A   Clear
6:53 PM 48.9 °F - 39.0 °F 69% 30.38 in 10.0 mi Calm Calm - N/A   Clear
7:53 PM 46.0 °F - 37.9 °F 73% 30.38 in 10.0 mi Calm Calm - N/A   Clear
8:53 PM 44.1 °F 42.5 °F 39.0 °F 82% 30.38 in 10.0 mi WSW 3.5 mph - N/A   Clear
9:53 PM 44.1 °F - 39.0 °F 82% 30.40 in 8.0 mi Calm Calm - N/A   Clear
10:53 PM 42.1 °F - 39.0 °F 89% 30.41 in 7.0 mi Calm Calm - N/A   Clear
11:53 PM 41.0 °F - 37.9 °F 89% 30.42 in 5.0 mi Calm Calm - N/A   Clear